Wind_Speed
132 132 132 131 131 131 131 130 130 131 131 133 134 135 137 138 139 140 141 142 143 143 144 144 144 144 144 143 142 141 139 137 133 129 124 120 115 111 107 103 100 97 94 91 88 85 83 80 78 75 73 70 68 66 64 62 60 58 56 54 52 50 48 46 44 43 41 39 38 37 36 35 34 33 32 32 31 31 32 32 33 33 33 33 33 33
133 133 133 132 132 132 131 131 131 132 134 136 138 140 141 142 142 143 144 144 145 145 145 145 144 144 143 142 141 139 137 133 129 125 120 115 111 107 104 101 98 95 92 89 86 83 81 78 76 73 71 68 66 64 62 60 58 56 54 52 50 48 46 44 43 41 40 38 37 36 35 34 33 33 32 32 31 32 32 32 33 33 33 33 34 34
134 134 134 133 132 132 132 132 133 135 138 141 143 144 145 145 145 145 145 146 146 146 145 145 144 144 142 141 139 137 133 129 125 120 116 112 108 104 101 98 95 93 90 87 84 81 79 76 74 71 69 66 64 62 60 58 56 54 52 50 48 46 45 43 41 40 39 37 36 35 34 34 33 33 32 32 32 32 32 33 33 33 34 34 34 34
135 135 134 133 133 133 134 135 137 140 143 146 147 148 147 147 146 146 146 146 146 146 145 145 144 143 141 139 137 133 129 125 120 116 112 108 105 102 99 96 93 90 87 85 82 80 77 75 72 70 67 65 62 61 59 57 55 53 50 48 46 45 43 41 40 39 37 36 35 35 34 33 33 33 32 32 32 33 33 33 34 34 34 34 34 35
135 134 134 134 135 136 137 139 142 144 147 149 150 150 149 148 147 147 147 146 146 146 145 144 143 141 139 136 133 129 125 120 116 112 108 105 102 99 97 94 91 88 85 83 80 77 75 73 70 68 65 63 61 59 57 55 53 51 49 47 45 43 41 40 39 38 37 36 35 34 33 33 33 33 33 33 33 33 33 34 34 34 34 35 35 35
135 136 136 137 138 140 142 143 145 147 149 151 151 151 149 148 147 147 146 146 145 145 144 142 141 138 135 132 128 124 120 116 112 108 105 102 99 97 94 91 88 86 83 80 78 75 73 71 68 66 63 61 59 57 55 53 51 49 47 45 43 42 40 39 38 37 36 35 34 34 33 33 33 33 33 33 33 34 34 34 34 34 35 35 35 36
138 139 140 142 143 144 145 146 148 150 151 151 151 151 150 148 147 146 146 145 144 143 142 140 138 135 131 127 123 119 115 111 108 105 102 100 97 94 91 89 86 83 81 78 76 73 71 69 66 64 61 59 57 55 53 51 49 47 45 43 42 40 39 38 37 36 35 34 34 33 33 33 33 33 33 34 34 34 34 34 35 35 35 35 36 36
143 144 145 145 146 146 147 148 150 151 152 151 151 150 148 148 147 146 145 144 143 141 139 137 134 131 127 123 118 114 111 108 105 102 100 97 94 92 89 86 84 81 79 76 74 71 69 66 64 62 59 57 55 53 51 49 47 45 43 42 40 39 38 37 36 35 34 34 33 33 33 33 33 33 34 34 34 34 35 35 35 35 36 36 36 37
146 147 147 147 147 147 148 150 151 152 152 151 150 148 147 146 146 145 144 143 141 139 136 133 129 126 122 118 114 110 107 105 102 99 97 94 91 89 86 84 81 79 76 74 71 69 66 64 62 59 57 55 53 51 49 47 45 44 42 40 39 38 37 36 35 34 34 33 33 33 33 33 33 33 34 34 34 35 35 35 35 36 36 36 37 37
148 148 148 148 149 149 149 150 151 152 152 151 149 147 146 145 144 143 142 140 138 136 132 128 124 120 117 113 110 107 104 102 99 97 94 91 89 86 84 81 79 77 74 72 69 66 64 61 59 57 54 52 50 49 47 45 44 42 40 39 38 37 36 35 34 34 33 33 33 33 33 33 33 33 34 34 35 35 35 36 36 36 37 37 37 38
149 149 149 149 150 151 151 151 151 152 151 150 149 147 146 145 143 141 139 137 135 131 127 123 119 116 112 109 107 104 101 99 96 94 92 89 86 84 81 79 77 74 72 69 66 64 61 59 56 54 52 50 48 47 45 44 42 40 39 38 37 36 35 34 34 33 33 33 33 33 33 33 33 34 34 35 35 35 36 36 36 37 37 38 38 38
150 150 150 150 151 151 152 152 152 152 151 149 147 146 145 143 141 138 135 133 130 126 122 118 115 111 108 106 103 101 99 96 94 91 89 87 84 81 79 76 74 72 69 66 64 61 59 56 54 52 50 48 46 45 43 42 40 39 38 37 36 35 34 34 33 33 33 33 33 33 33 33 34 34 34 35 35 36 36 37 37 37 38 38 38 39
151 151 151 151 151 152 152 152 152 151 150 148 146 144 142 140 138 135 131 128 124 121 117 114 111 108 105 103 100 98 95 93 91 89 86 84 81 79 76 74 71 69 66 64 61 58 56 54 51 49 47 46 44 43 41 40 39 38 37 36 35 34 34 33 33 33 33 33 33 33 33 34 34 34 35 35 36 36 37 37 38 38 38 39 39 39
151 152 152 152 152 152 153 152 151 150 148 146 144 142 139 136 133 130 126 122 119 116 112 109 107 105 103 100 98 95 93 90 88 86 83 81 78 76 73 71 68 66 63 61 58 56 53 51 49 47 45 44 42 41 40 39 38 37 36 35 35 34 34 33 33 33 33 33 33 33 33 34 34 35 35 36 36 37 37 38 38 39 39 39 40 40
152 152 152 152 153 153 153 152 150 148 146 143 141 138 135 132 128 124 121 117 114 111 109 106 104 102 100 97 95 92 90 87 85 83 81 78 75 73 70 67 65 63 60 58 55 53 51 49 47 45 43 42 41 39 38 37 37 36 35 35 34 34 33 33 33 33 33 33 33 33 34 34 35 35 36 36 37 38 38 39 39 39 40 40 40 41
153 153 153 153 153 153 152 150 148 145 142 139 137 133 130 126 122 119 116 113 110 108 105 103 101 99 97 95 92 89 87 85 82 80 78 75 72 70 67 64 62 60 57 55 53 51 49 47 45 43 42 40 39 38 37 36 36 35 35 34 34 34 34 33 33 33 33 34 34 34 34 35 35 36 36 37 38 38 39 39 40 40 40 41 41 41
154 153 153 153 152 151 149 147 144 141 138 134 131 128 124 120 117 114 111 109 106 104 102 100 98 96 94 92 89 87 84 82 79 77 74 72 69 67 64 61 59 56 55 52 50 48 46 45 43 42 40 39 38 37 36 35 35 34 34 34 34 34 34 34 34 34 34 34 34 34 35 35 36 36 37 38 38 39 39 40 40 41 41 41 42 42
154 153 152 151 150 148 145 142 139 136 132 129 125 122 118 115 112 110 107 105 103 101 99 98 95 93 91 89 87 84 81 78 76 74 71 68 66 63 61 58 56 54 52 50 48 46 45 43 42 40 39 38 37 36 35 35 34 34 34 34 34 34 34 34 34 34 34 34 35 35 35 36 36 37 38 38 39 39 40 40 41 41 42 42 43 43
153 152 150 148 146 143 140 137 134 130 126 123 119 116 113 111 108 106 104 102 100 98 96 94 92 90 88 85 83 81 78 75 72 70 68 65 63 60 58 55 53 51 49 48 46 44 43 41 40 39 38 37 36 35 35 34 34 34 34 34 34 34 34 34 34 34 35 35 35 35 36 36 37 38 38 39 39 40 40 41 42 42 43 43 43 44
150 149 147 144 141 138 134 131 127 124 120 117 114 111 109 107 105 103 101 99 97 95 93 91 89 87 84 82 80 77 75 72 69 67 64 62 60 57 55 53 51 49 47 46 44 43 41 40 39 38 37 36 35 35 34 34 34 34 34 34 34 34 34 34 35 35 35 35 36 36 36 37 38 38 39 39 40 41 41 42 42 43 43 44 44 44
146 144 141 138 135 131 128 124 121 118 115 112 109 107 105 104 102 100 98 96 94 92 90 88 86 83 81 78 76 74 71 68 65 63 61 59 57 55 53 50 48 47 45 44 42 41 40 39 38 37 36 36 35 34 34 34 34 34 34 34 34 34 34 35 35 35 35 36 36 37 37 38 38 39 39 40 41 41 42 43 43 44 44 44 44 43
140 138 135 132 128 124 121 118 115 112 110 108 105 104 102 100 99 97 95 93 91 89 87 84 82 79 77 75 72 70 67 64 62 60 58 56 54 52 50 48 46 45 43 42 41 40 39 38 37 36 36 35 35 34 34 34 34 34 34 34 34 35 35 35 35 35 36 36 37 37 38 38 39 39 40 41 41 42 43 43 44 44 44 44 43 43
134 131 128 125 122 118 115 113 110 108 106 104 102 100 99 97 96 94 92 90 88 85 83 80 78 76 73 71 69 66 64 61 59 57 55 53 52 50 48 46 44 43 42 41 40 39 38 37 36 36 35 35 35 34 34 34 34 34 34 34 35 35 35 35 35 36 36 36 37 38 38 39 39 40 41 41 42 43 43 43 44 44 43 43 42 41
127 124 122 119 116 113 110 108 106 104 103 101 99 97 96 94 93 91 89 86 84 81 79 76 74 72 70 67 65 63 61 59 56 54 53 51 49 48 46 44 43 41 40 40 38 38 37 36 36 35 35 35 34 34 34 34 34 34 34 34 34 35 35 35 35 36 36 37 37 38 39 39 40 41 41 42 42 42 42 42 42 42 42 41 41 40
121 118 116 113 111 108 106 104 103 101 99 98 96 94 93 91 89 88 85 83 80 77 75 72 70 68 66 64 62 60 58 56 54 52 50 49 47 46 44 43 41 40 39 38 37 37 36 36 35 35 34 34 34 34 34 33 33 33 33 34 34 34 34 35 35 36 36 37 38 38 39 39 40 40 40 41 41 41 41 41 41 40 40 40 40 40
116 113 111 108 106 104 103 101 100 98 96 94 93 91 90 88 86 84 81 78 76 73 70 68 66 65 63 61 60 58 56 54 52 50 48 46 45 44 43 41 40 38 38 37 36 35 35 34 34 34 34 33 33 33 33 33 33 33 33 33 33 34 34 35 35 36 36 37 37 38 38 38 39 39 39 39 39 39 40 39 39 39 40 40 40 40
111 109 106 104 102 101 99 98 96 95 93 91 89 88 86 84 82 80 77 74 71 69 66 65 63 62 60 59 57 55 53 51 49 48 46 44 43 42 41 40 38 37 36 35 35 34 33 33 33 33 32 32 32 32 32 32 32 32 32 32 33 33 33 34 34 35 35 36 36 36 37 37 37 38 38 38 39 39 39 39 39 39 40 40 40 41
106 104 102 100 99 98 96 95 93 91 89 88 86 84 82 80 78 75 72 69 67 65 63 62 60 59 58 56 55 53 51 49 47 46 44 42 41 40 39 38 36 35 34 34 33 32 32 32 32 31 31 31 31 31 31 31 31 31 31 32 32 32 32 33 33 34 34 35 35 35 36 36 37 37 38 38 38 39 39 39 40 40 40 41 41 42
102 100 98 97 96 94 93 91 89 88 86 84 82 81 78 76 73 70 68 65 63 61 60 59 58 57 55 54 52 51 49 47 45 44 42 40 39 38 37 36 35 34 33 32 32 31 31 31 31 30 30 30 30 30 30 30 30 30 31 31 31 31 32 32 32 33 33 34 34 35 35 36 37 37 38 38 39 39 40 40 41 41 41 42 43 43
98 96 95 94 92 91 89 87 86 84 82 80 78 76 74 71 68 66 63 61 60 59 58 57 56 55 53 52 50 49 47 45 43 41 39 38 37 36 35 34 33 32 31 31 30 30 30 30 30 30 30 30 30 30 30 30 30 30 30 30 31 31 31 32 32 33 33 34 35 35 36 37 37 38 39 39 40 40 41 41 42 42 43 44 44 45
94 92 91 90 89 87 85 84 82 80 78 76 74 72 69 67 64 62 60 58 57 56 55 55 54 52 51 50 48 47 45 43 41 39 37 36 35 35 34 32 32 32 31 30 30 30 30 29 29 29 29 29 29 29 30 30 30 30 30 31 31 31 32 33 33 34 35 35 36 36 37 38 39 39 40 41 42 42 43 43 44 44 45 46 46 47
90 89 88 86 85 83 81 80 78 76 74 72 70 67 65 63 61 59 57 56 55 54 53 52 51 50 49 48 47 45 44 42 40 38 36 34 34 34 33 32 31 31 31 30 30 29 29 29 29 29 29 29 29 30 30 30 31 31 31 32 32 33 34 34 35 36 36 37 38 38 39 40 40 41 42 43 43 44 45 45 46 46 47 47 48 48
86 85 84 83 81 79 77 75 73 71 69 67 65 63 61 60 58 56 55 54 53 52 51 50 50 49 48 46 45 44 42 40 38 37 35 34 33 33 32 31 31 31 30 30 30 29 29 29 29 29 29 30 30 31 31 32 32 33 33 34 34 35 36 36 37 38 38 39 39 40 41 42 42 43 44 45 45 46 47 47 48 48 48 49 49 50
82 81 80 79 77 75 73 71 69 67 65 63 61 60 58 57 56 55 54 53 52 51 50 49 48 47 46 45 44 43 41 39 38 36 35 33 33 32 32 31 31 30 30 30 29 29 29 30 30 30 31 31 32 32 33 33 34 34 35 35 36 37 37 38 39 39 40 40 41 42 43 43 44 45 45 46 47 47 48 48 49 49 50 50 50 51
79 78 76 74 72 70 69 67 65 63 61 59 58 57 56 55 54 53 52 51 50 49 48 47 46 45 44 43 42 41 40 38 37 35 34 33 33 32 32 31 31 31 30 30 30 30 31 31 32 32 33 33 33 34 34 35 35 36 36 37 38 38 39 39 40 40 41 42 42 43 44 44 45 46 46 47 48 48 49 49 50 50 51 51 51 52
75 74 72 70 68 66 64 62 61 59 58 57 56 55 54 53 52 51 51 49 48 47 46 45 44 43 42 42 41 40 39 38 36 35 34 34 33 33 32 32 32 31 31 32 32 32 32 33 33 34 34 35 35 35 35 36 36 37 37 38 39 39 40 40 41 41 42 42 43 44 44 45 46 46 47 47 48 49 49 50 50 51 51 52 52 53
71 70 68 66 64 62 60 59 57 56 55 54 54 53 52 52 51 50 49 48 47 46 45 44 43 42 41 40 40 39 38 37 36 35 34 34 33 33 33 33 33 32 32 33 33 33 34 34 34 35 35 36 36 37 37 37 37 38 38 39 39 40 40 41 41 42 42 43 43 44 45 45 46 46 47 48 48 49 50 50 51 52 52 53 53 54
67 65 64 62 60 58 57 56 55 54 53 53 52 52 51 50 49 48 47 46 45 44 43 42 42 41 40 39 38 38 37 36 35 35 34 34 34 33 33 33 33 33 33 33 34 34 34 35 35 36 36 36 37 37 37 37 37 38 38 39 39 40 40 41 41 42 42 43 44 44 45 46 46 47 48 48 49 50 50 51 52 52 53 54 54 55
63 61 60 58 57 55 54 53 52 52 52 51 50 50 49 48 48 47 46 45 44 43 42 41 40 40 39 38 37 37 36 35 35 34 34 34 33 33 33 33 33 33 34 34 34 34 35 35 36 36 36 36 36 36 37 37 37 38 38 39 39 40 41 41 42 42 43 44 45 45 46 47 47 48 49 49 50 51 51 52 53 53 54 54 55 55
59 58 56 55 54 53 52 51 51 50 50 49 49 48 48 47 46 45 45 44 43 42 41 40 39 39 38 37 36 36 35 35 34 34 33 33 33 33 33 33 33 34 34 34 34 34 35 35 35 36 36 36 36 36 36 37 37 38 39 40 40 41 41 42 43 43 44 45 46 47 47 48 48 49 50 50 51 52 52 53 54 54 54 55 55 56
56 54 53 52 52 51 50 50 49 49 48 48 47 47 46 46 45 44 43 42 42 41 40 39 38 37 37 36 35 34 34 34 33 33 33 33 32 32 33 33 33 33 33 34 34 34 34 35 35 35 35 36 36 36 37 38 38 39 40 41 42 43 43 44 44 45 46 47 47 48 49 49 50 50 51 51 52 52 53 53 54 54 55 55 55 56
53 52 51 50 50 49 49 48 48 47 47 46 46 45 45 44 44 43 42 41 41 40 39 38 37 36 35 34 34 33 33 33 32 32 32 32 32 32 33 33 33 33 33 34 34 34 34 35 35 35 36 36 37 37 38 39 40 41 42 43 44 44 45 46 46 47 47 48 49 49 49 50 50 51 51 51 52 52 53 53 54 55 55 56 56 56
51 50 49 49 48 48 47 47 46 46 45 45 44 44 43 43 42 42 41 40 39 38 38 37 36 35 34 33 33 32 32 32 32 32 32 32 32 32 33 33 33 33 33 34 34 35 35 35 36 36 37 37 38 39 40 41 42 43 43 44 45 46 47 47 47 48 48 49 49 49 50 50 51 51 51 52 52 53 53 54 55 55 56 56 57 57
49 48 48 47 47 46 46 45 45 45 44 43 43 42 42 41 41 40 40 39 38 37 36 35 34 33 33 32 32 32 32 31 31 31 32 32 32 32 33 33 33 34 34 34 35 36 36 36 37 38 38 39 40 41 42 43 44 44 45 45 46 46 47 48 48 48 49 49 50 50 50 51 51 52 52 53 53 53 54 54 55 56 56 57 57 58
48 47 46 46 45 45 45 44 44 43 42 42 41 41 40 40 39 39 38 37 36 36 35 34 33 32 32 32 31 31 31 31 31 32 32 32 32 33 33 34 34 35 35 36 36 37 37 38 39 39 40 40 41 42 43 44 44 45 45 45 46 47 47 48 49 49 50 50 50 51 51 52 52 53 53 54 54 54 54 55 56 56 57 57 57 58
46 46 45 45 44 44 43 43 42 42 41 41 40 40 39 38 38 37 37 36 35 34 34 33 32 32 31 31 31 31 31 31 32 32 32 33 33 34 34 34 35 36 36 37 37 38 39 39 40 40 41 41 42 43 43 44 44 45 45 46 46 47 48 49 49 50 50 51 52 52 53 53 53 54 54 54 55 55 55 55 56 56 57 57 58 58
45 45 44 44 43 43 42 42 41 40 40 39 39 38 38 37 36 36 35 35 34 33 33 32 32 31 31 31 31 31 31 32 32 33 33 34 34 35 35 36 36 37 37 38 38 39 39 40 40 41 41 42 42 43 43 43 44 45 46 46 47 48 49 49 50 51 51 52 53 53 54 54 54 55 55 55 55 55 55 55 56 56 57 57 57 58
44 44 43 43 42 42 41 40 40 39 39 38 38 37 37 36 35 35 34 34 33 33 32 32 32 32 32 32 32 32 32 33 33 34 34 35 35 35 36 36 37 37 38 38 39 39 40 40 40 41 41 42 43 43 44 44 44 45 46 47 48 49 49 50 51 51 52 53 53 54 55 55 56 56 56 56 56 56 56 56 56 56 56 56 57 57
43 43 42 42 41 41 40 40 39 38 38 37 37 36 36 35 35 34 34 33 33 33 32 32 32 32 32 33 33 33 33 34 34 35 35 35 36 36 36 37 37 38 38 38 39 39 40 40 40 41 41 42 43 44 44 45 45 46 47 48 48 49 50 51 52 52 53 54 54 55 55 56 56 56 56 57 56 56 55 55 55 55 55 55 55 55
43 42 41 41 40 40 39 39 38 37 37 36 36 35 35 35 34 34 33 33 33 33 33 33 33 33 33 34 34 34 34 35 35 36 36 36 36 36 37 37 38 38 38 39 39 40 40 41 41 42 42 43 43 44 45 46 46 47 48 49 49 50 51 52 53 53 54 54 55 55 56 56 56 56 57 57 56 56 55 55 54 54 54 54 54 54
42 41 40 40 39 39 38 38 37 37 36 36 35 35 34 34 34 34 34 33 33 33 34 34 34 34 34 35 35 35 35 36 36 36 36 36 36 37 37 38 38 38 39 40 40 40 41 41 42 43 43 44 44 44 45 46 47 48 49 50 50 51 52 53 53 54 54 55 55 56 56 57 57 57 57 57 56 56 55 54 53 53 53 52 52 52
Wind_Direction
294 294 295 295 296 296 296 297 298 298 299 300 300 301 301 301 302 302 303 303 304 305 305 306 306 307 307 308 308 308 309 309 309 309 309 309 308 308 308 308 308 308 307 307 306 306 305 304 304 303 303 302 301 300 299 298 298 297 296 295 294 293 292 290 289 288 286 284 282 280 277 275 272 269 266 263 260 257 255 255 255 255 256 257 258 259
293 294 294 294 295 295 296 296 297 298 299 300 301 301 301 301 302 302 303 303 304 305 305 306 306 307 307 307 308 308 308 308 308 308 308 308 308 308 308 308 307 307 307 306 306 305 304 304 303 303 302 301 300 299 298 297 297 296 295 294 293 291 290 289 287 286 284 282 280 277 275 272 269 267 264 261 258 255 254 253 254 254 255 256 258 259
293 293 293 294 294 294 295 296 297 298 300 301 301 301 301 302 302 302 303 303 304 304 305 305 306 306 307 307 307 307 308 308 308 308 307 307 307 307 307 307 307 307 306 306 305 304 304 303 302 302 301 300 299 298 297 296 295 294 294 293 291 290 289 287 285 283 281 279 277 275 272 270 267 264 261 258 256 254 252 252 253 253 254 255 257 258
292 292 292 293 293 294 295 296 297 299 300 301 302 302 302 302 302 302 303 303 304 304 305 305 306 306 306 307 307 307 307 307 307 307 307 307 307 307 307 307 306 306 305 305 304 303 303 302 302 301 300 299 298 297 296 295 294 293 292 291 290 288 287 285 283 281 279 277 274 272 270 267 264 261 259 256 254 252 251 251 251 252 253 255 256 258
291 291 292 292 293 294 295 296 298 299 300 301 302 302 302 302 302 302 303 303 304 304 304 305 305 306 306 306 306 307 306 306 306 306 306 306 306 306 306 306 306 305 305 304 303 303 302 301 300 300 299 298 297 296 295 294 293 292 291 290 288 286 284 283 281 279 277 274 272 270 267 264 261 259 256 254 252 251 250 250 250 251 252 254 255 257
291 291 292 293 293 294 295 296 298 299 300 301 301 301 301 301 302 302 302 303 303 304 304 304 305 305 306 306 306 306 306 306 306 306 306 306 306 306 306 305 305 304 304 303 302 302 301 300 300 299 298 297 296 295 294 292 292 290 289 288 286 284 282 280 278 276 274 272 270 267 265 262 259 257 254 253 251 250 249 249 250 251 252 253 255 257
291 291 292 293 294 294 295 296 297 299 299 300 300 300 301 301 301 302 302 302 303 303 304 304 305 305 305 305 305 305 305 305 305 305 305 305 305 305 305 304 304 303 303 302 301 301 300 299 298 298 297 296 295 293 292 291 290 289 287 286 284 282 280 278 276 274 272 270 267 265 262 260 257 255 253 251 250 249 248 249 249 250 251 253 254 256
291 291 292 293 294 295 295 296 297 298 299 299 300 300 300 300 301 301 302 302 303 303 304 304 304 304 305 305 304 304 304 304 305 305 305 305 305 304 304 303 303 302 302 301 300 300 299 298 297 296 295 294 293 292 291 290 289 287 286 284 282 280 278 276 274 272 270 267 265 263 260 257 255 253 251 250 249 248 248 248 249 249 251 252 254 256
291 291 292 293 294 294 295 296 297 298 298 299 299 299 300 300 301 301 302 302 303 303 303 304 304 304 304 304 304 304 304 304 304 304 304 304 304 303 303 302 302 301 301 300 299 298 298 297 296 295 294 293 292 290 289 288 287 285 284 282 280 278 276 274 271 269 267 265 263 260 258 255 253 251 250 249 248 248 248 248 248 249 250 252 253 255
290 291 292 293 293 294 295 296 297 297 298 299 299 299 300 300 301 301 302 302 302 303 303 303 303 303 303 303 303 303 304 304 304 304 304 303 303 302 302 301 301 300 300 299 298 297 297 296 295 294 293 291 290 289 287 286 285 283 282 280 278 275 273 271 269 267 265 263 260 258 256 254 251 250 248 248 247 247 247 248 248 249 250 251 253 255
290 291 292 293 293 294 295 296 296 297 298 298 299 299 299 300 300 301 301 302 302 302 302 303 303 303 303 303 303 303 303 303 303 303 303 302 302 302 301 300 300 299 299 298 297 296 295 294 293 292 291 290 288 287 286 284 283 281 280 277 275 273 271 269 267 265 262 260 258 256 254 252 250 248 247 247 247 247 247 248 248 249 250 251 253 255
290 291 292 292 293 294 295 296 296 297 298 298 298 299 299 300 300 301 301 301 302 302 302 302 302 302 302 302 302 303 303 303 302 302 302 302 301 301 300 300 299 298 298 297 296 295 294 293 292 291 290 288 287 285 284 282 281 279 277 275 273 271 269 267 264 262 260 258 256 254 252 250 249 247 246 246 246 246 247 247 248 249 250 251 253 254
290 291 291 292 293 294 295 296 296 297 297 298 298 299 299 300 300 300 301 301 301 301 301 301 301 302 302 302 302 302 302 302 302 301 301 301 300 300 299 299 298 297 297 296 295 294 293 292 291 289 288 286 285 283 282 281 279 277 275 273 271 268 266 264 262 260 258 256 254 252 251 249 247 246 245 245 245 246 247 247 248 249 250 252 253 254
290 290 291 292 293 294 295 295 296 297 297 297 298 298 299 299 300 300 300 300 300 301 301 301 301 301 301 302 302 302 301 301 301 300 300 300 299 299 298 298 297 296 295 295 294 293 292 291 289 288 286 285 283 281 280 278 277 275 273 270 268 266 264 262 260 258 256 254 252 251 249 248 246 245 245 245 245 246 246 247 249 250 251 252 253 254
290 290 291 292 293 294 294 295 296 296 297 297 298 298 299 299 299 299 300 300 300 300 300 300 301 301 301 301 301 301 301 300 300 300 299 299 299 298 297 297 296 295 294 293 292 291 290 289 287 286 284 283 281 280 278 276 274 272 270 268 266 264 262 260 258 256 254 253 251 249 248 246 245 245 244 245 245 246 247 248 249 250 251 252 253 254
290 290 291 292 293 293 294 295 295 296 296 297 297 298 298 299 299 299 299 299 299 300 300 300 300 300 301 301 300 300 300 299 299 299 298 298 298 297 296 296 295 294 293 292 291 290 289 287 286 284 283 281 279 278 276 274 272 270 268 265 263 262 260 258 256 254 253 251 250 248 247 246 245 245 244 245 245 246 247 248 249 250 251 252 253 254
289 290 291 292 292 293 294 294 295 295 296 296 297 297 298 298 298 298 299 299 299 299 299 300 300 300 300 300 300 299 299 299 298 298 298 297 297 296 295 294 293 292 292 291 289 288 287 286 284 283 281 279 277 276 274 272 270 268 265 263 261 260 258 257 255 253 252 251 249 248 247 246 245 245 245 245 246 246 247 248 249 251 251 252 254 255
289 290 291 291 292 293 293 294 295 295 296 296 297 297 297 297 298 298 298 298 299 299 299 299 299 299 299 299 299 298 298 298 297 297 297 296 296 295 294 293 292 291 290 289 288 287 285 284 282 281 279 277 276 274 272 270 268 265 264 261 260 258 257 255 254 253 251 250 249 248 247 246 245 245 245 245 246 247 248 249 250 251 252 253 254 255
289 290 290 291 292 293 293 294 294 295 295 296 296 297 297 297 297 297 298 298 298 298 298 299 299 299 298 298 298 298 297 297 296 296 296 295 295 294 293 292 291 290 289 287 286 285 284 282 281 279 277 276 274 272 270 268 266 264 262 260 258 257 255 254 253 252 251 250 249 248 247 246 246 246 246 246 247 248 248 249 250 251 252 253 254 255
289 290 290 291 292 292 293 293 294 295 295 295 296 296 296 297 297 297 297 297 298 298 298 298 298 298 298 297 297 297 296 296 296 295 295 294 293 293 292 291 289 288 287 286 284 283 282 280 279 277 275 274 272 270 268 266 264 262 260 259 257 256 255 253 252 252 251 250 249 248 248 247 247 247 247 248 248 249 249 250 251 252 253 254 255 256
289 289 290 291 291 292 293 293 294 294 295 295 295 296 296 296 296 297 297 297 297 297 297 297 297 297 296 296 296 295 295 295 295 294 294 293 292 291 290 289 288 287 285 284 283 281 280 278 276 275 273 271 270 268 266 264 262 260 259 257 256 255 254 253 252 251 251 250 249 249 248 248 248 248 248 249 249 250 250 251 252 253 254 255 256 257
289 289 290 291 291 292 292 293 294 294 294 295 295 295 295 296 296 296 296 296 297 297 297 296 296 296 295 295 295 294 294 294 293 293 292 291 291 290 289 287 286 285 283 282 281 279 277 276 274 273 271 269 267 265 264 262 260 259 257 256 255 254 254 253 252 251 251 250 250 250 249 249 249 249 249 250 250 251 251 252 253 254 255 257 258 259
289 289 290 290 291 292 292 293 293 294 294 294 294 295 295 295 295 295 295 296 296 296 296 296 295 295 294 294 294 294 293 293 292 292 291 290 289 288 287 286 284 283 282 280 278 277 275 273 272 270 268 267 265 263 262 260 259 258 257 256 255 255 254 253 253 252 252 251 251 250 250 250 250 250 250 251 251 252 253 254 255 256 257 259 260 261
288 289 290 290 291 292 292 293 293 293 293 294 294 294 294 294 294 295 295 295 295 295 295 295 294 294 293 293 293 292 292 292 291 290 289 288 288 287 285 284 283 281 280 278 276 275 273 271 270 268 266 265 263 262 261 259 258 257 257 256 255 255 254 254 253 253 252 252 252 251 251 251 251 252 252 252 253 254 255 256 257 259 260 261 261 262
288 289 290 290 291 292 292 292 292 293 293 293 293 293 293 294 294 294 294 295 295 294 294 294 293 292 292 292 292 291 291 291 290 289 288 287 286 285 284 282 281 279 278 276 275 273 271 270 268 266 265 263 262 261 260 259 258 257 257 256 256 255 255 254 254 253 253 253 253 253 252 253 253 254 254 255 256 257 258 259 260 260 261 262 262 263
288 289 290 290 291 291 291 292 292 292 292 293 293 293 293 293 293 294 294 294 294 294 293 292 292 291 291 291 291 290 290 289 289 287 286 285 284 283 282 280 279 277 276 275 273 271 270 268 267 265 264 262 261 260 259 259 258 257 257 256 256 256 255 255 255 254 254 254 254 255 255 255 256 256 257 257 258 259 260 260 261 261 262 262 263 263
288 289 290 290 290 291 291 291 291 292 292 292 292 292 292 292 293 293 293 293 293 292 291 291 290 290 290 290 289 289 289 288 287 286 285 284 282 281 280 279 277 276 274 273 271 270 268 266 265 264 262 261 260 259 258 258 257 257 256 256 256 256 256 255 256 256 256 256 257 257 257 258 258 259 259 260 260 260 261 261 261 261 262 262 262 262
288 289 289 290 290 290 290 290 291 291 291 291 291 291 292 292 292 292 292 292 292 291 290 290 289 289 289 289 288 288 287 286 285 284 283 282 281 279 278 277 275 274 272 270 269 267 266 264 263 262 261 260 259 258 257 257 256 256 256 256 256 256 256 256 257 257 258 258 258 259 259 259 259 259 260 260 260 260 260 261 261 261 261 261 261 261
288 289 289 289 289 289 289 290 290 290 290 290 290 291 291 291 291 291 291 291 290 289 289 289 288 288 288 288 287 287 286 285 284 283 282 280 279 277 276 275 273 271 269 267 266 265 263 262 261 260 259 259 258 257 257 256 256 256 256 256 256 256 257 257 257 258 258 258 259 259 259 259 259 259 259 259 259 260 260 260 260 260 260 260 260 260
288 288 288 288 288 288 288 289 289 289 289 290 290 290 290 290 290 290 290 289 288 288 288 288 287 287 287 286 286 285 284 283 282 281 280 278 276 275 274 272 270 268 266 264 263 262 261 260 260 259 259 258 258 257 257 256 256 256 256 256 256 256 257 257 257 257 257 257 257 257 257 258 258 258 258 258 258 258 258 259 259 259 259 259 259 259
287 287 287 287 287 287 287 288 288 288 289 289 289 289 289 289 289 288 288 287 287 287 287 286 286 286 285 285 284 283 282 281 281 279 277 275 273 271 271 268 267 266 265 263 261 260 260 260 259 259 258 258 258 257 257 256 256 256 256 256 256 256 256 255 256 256 255 256 255 255 256 256 256 256 256 256 257 257 257 257 257 258 258 258 258 259
286 286 286 286 286 286 287 287 287 288 288 288 288 288 288 288 287 287 286 286 286 285 285 285 285 284 284 283 282 281 279 279 278 277 274 271 270 268 267 266 264 264 263 262 260 260 260 259 259 259 259 258 257 257 257 256 255 255 255 255 255 255 254 254 254 254 254 254 254 254 254 254 254 255 255 255 256 256 256 257 257 257 258 258 259 259
284 284 284 285 285 286 286 286 287 287 287 287 287 287 287 286 286 286 285 285 285 284 284 284 283 283 282 281 280 279 277 276 275 273 271 268 266 265 264 263 262 261 261 260 260 258 258 257 257 258 257 256 256 255 255 255 254 254 253 254 254 254 253 253 253 253 253 254 253 254 254 254 254 254 255 255 256 256 257 257 258 258 259 259 260 261
283 283 283 284 284 285 285 286 286 286 286 286 286 285 285 285 285 284 284 284 284 283 283 282 282 281 280 279 278 277 275 274 272 271 269 266 264 262 262 260 259 258 258 257 256 256 255 254 254 254 254 254 254 254 254 254 254 253 253 254 254 254 254 254 254 254 254 254 255 255 255 255 255 256 256 257 257 258 258 259 260 260 261 261 262 263
282 282 282 283 284 284 285 285 285 285 285 284 284 284 284 284 283 283 283 283 283 283 282 281 280 279 278 277 276 274 273 271 270 269 267 264 262 260 259 258 257 256 255 254 253 252 251 252 252 252 252 252 253 253 254 254 254 255 255 255 255 255 256 256 256 256 256 257 257 257 257 258 258 259 259 260 260 261 261 262 262 263 263 263 264 264
280 281 282 283 283 284 284 284 284 283 283 283 283 283 282 283 283 283 283 282 282 282 281 280 279 278 277 275 274 272 271 270 269 267 265 263 261 260 258 257 256 255 254 253 252 252 251 251 252 252 252 252 253 254 255 256 256 256 257 257 257 258 258 258 259 259 259 260 260 260 261 261 261 262 262 262 263 263 264 264 264 265 265 265 265 266
280 281 281 282 282 283 283 282 282 282 282 282 281 281 282 282 282 282 282 281 281 280 280 279 278 277 275 274 273 271 270 269 268 266 264 262 261 259 257 256 256 256 254 253 253 253 253 253 253 253 253 254 254 255 256 257 258 258 259 260 260 261 261 262 262 262 263 263 263 263 263 264 264 264 264 265 265 265 266 266 266 266 267 267 267 267
279 280 281 281 281 281 281 281 281 280 280 280 280 281 281 281 281 281 281 280 280 279 278 277 276 275 275 274 272 271 270 268 267 265 264 262 261 259 257 257 256 256 256 255 255 255 255 254 255 255 255 256 257 258 259 260 261 261 262 263 263 264 264 265 265 265 265 265 266 266 266 266 266 267 267 267 267 268 268 268 268 268 269 269 269 269
279 280 280 280 280 280 280 279 279 279 279 280 280 280 280 280 280 280 280 279 279 278 277 276 275 274 274 273 272 271 269 268 267 266 264 263 261 260 258 257 257 257 257 257 257 257 257 257 257 258 259 260 261 262 263 264 264 265 266 266 266 266 267 267 267 267 267 268 268 268 268 268 269 269 269 269 270 270 270 270 270 270 270 271 271 271
278 279 279 279 279 278 278 278 278 279 279 279 279 279 279 279 279 279 279 278 277 277 276 275 274 274 273 272 271 270 269 268 267 266 265 263 262 261 260 259 259 259 259 259 259 259 260 261 262 262 263 264 265 266 267 267 267 268 268 268 268 268 269 269 269 269 270 270 270 270 271 271 271 271 271 272 272 272 272 272 272 272 272 272 272 272
277 277 277 277 277 277 277 277 277 278 278 278 278 279 278 278 278 278 277 277 276 275 275 274 273 273 272 271 271 270 269 268 267 266 265 264 264 263 262 261 261 261 261 262 262 263 263 264 265 266 267 267 268 268 269 269 269 269 269 270 270 270 271 271 271 272 272 272 272 272 273 273 273 273 273 274 273 274 274 274 274 274 274 273 273 273
276 276 276 276 276 276 276 276 277 277 277 277 277 277 277 277 277 277 276 276 275 274 273 273 272 272 271 271 270 269 268 267 267 266 266 265 265 265 264 264 264 264 264 265 265 266 266 267 267 268 268 269 269 270 270 270 270 270 270 271 272 272 273 273 273 273 274 274 274 274 275 275 275 275 275 275 275 275 275 275 275 275 275 274 274 274
274 274 274 275 275 275 275 276 276 276 276 276 276 276 276 276 276 275 275 274 274 273 273 272 272 271 271 270 270 269 268 267 267 267 267 267 267 266 266 266 266 267 267 267 267 268 268 268 269 269 269 270 270 270 270 271 271 272 272 272 273 273 274 274 274 275 275 275 275 276 276 276 276 276 276 276 276 276 276 276 276 276 276 276 275 275
273 273 273 273 274 274 274 275 275 275 275 275 275 275 275 274 274 274 274 273 273 272 272 271 271 271 270 270 270 269 268 268 268 267 267 267 267 267 267 268 268 268 268 268 268 269 269 269 269 269 270 270 270 270 271 271 272 273 273 274 274 274 275 275 276 276 276 277 277 277 277 277 277 277 277 277 277 277 277 277 277 277 277 277 277 277
272 272 272 272 273 273 274 274 274 274 274 274 274 274 273 273 272 272 272 271 271 271 271 270 270 271 270 270 270 270 270 269 268 268 268 268 267 267 267 268 268 268 268 268 268 268 269 269 269 270 270 270 270 271 271 272 273 273 274 275 275 275 276 276 277 277 278 278 279 279 279 279 279 279 279 279 279 279 279 279 279 279 279 278 278 278
270 271 271 272 272 272 273 273 273 273 273 272 272 272 271 271 271 270 270 270 270 270 270 270 270 270 270 270 270 270 270 269 268 268 267 267 267 267 267 267 267 267 267 268 268 268 269 269 270 270 270 271 271 271 272 272 273 274 274 275 276 276 277 277 278 279 279 280 280 281 281 281 281 281 281 281 281 281 281 281 281 280 280 280 279 279
269 270 270 271 271 272 272 272 272 271 271 271 270 270 270 269 269 268 268 268 268 268 268 269 269 269 269 269 269 268 268 268 267 267 267 266 266 266 266 266 267 267 267 268 268 268 269 269 270 270 271 271 271 272 272 273 274 274 275 276 277 277 278 279 279 280 281 282 282 283 283 283 283 283 283 283 283 283 282 282 282 281 281 281 280 280
268 269 269 270 270 270 270 270 270 270 269 269 269 268 268 267 267 267 267 267 267 267 267 267 268 268 268 268 267 267 267 267 267 267 266 266 266 266 266 267 267 267 268 268 268 269 269 270 270 271 271 272 272 273 273 274 275 276 276 277 278 279 280 281 281 282 283 283 284 284 285 285 285 285 285 284 284 284 283 283 283 282 282 281 281 280
267 268 268 269 269 269 268 268 268 268 268 268 267 267 266 266 265 265 265 265 265 266 266 266 267 267 267 267 267 267 267 267 266 266 267 267 267 267 267 268 268 268 269 269 269 270 270 270 271 271 272 272 273 274 275 276 277 278 278 279 280 281 282 283 283 284 285 285 285 286 286 286 286 286 286 286 285 285 284 284 284 283 283 282 281 281
266 267 267 267 267 267 267 266 266 266 266 266 266 266 265 265 265 264 264 264 265 265 265 265 266 266 267 267 267 267 267 267 267 267 268 268 268 268 269 269 269 269 269 270 270 270 270 271 272 272 273 274 275 276 277 278 279 280 281 281 282 283 284 284 285 285 286 286 286 287 287 287 287 287 287 287 286 286 286 285 285 284 283 283 282 281
265 266 266 265 265 265 265 264 264 264 264 264 264 264 264 264 263 263 263 264 264 264 265 265 266 266 267 267 267 267 267 268 268 268 268 269 269 269 269 270 270 270 270 270 270 270 271 271 272 273 274 275 276 277 279 280 281 282 282 283 283 284 285 285 286 287 287 287 287 288 288 288 288 288 288 288 288 288 287 286 286 285 284 283 282 281
Height
10556 10554 10551 10549 10548 10547 10544 10542 10541 10541 10540 10537 10536 10534 10534 10532 10530 10527 10525 10523 10521 10518 10516 10513 10511 10507 10505 10502 10499 10496 10493 10490 10487 10484 10481 10477 10475 10472 10470 10467 10465 10463 10461 10459 10456 10454 10451 10449 10447 10446 10445 10444 10442 10441 10440 10439 10437 10437 10436 10436 10435 10434 10434 10434 10433 10433 10432 10432 10433 10433 10433 10433 10433 10434 10434 10435 10436 10436 10436 10437 10437 10437 10438 10439 10439 10439
10549 10547 10546 10544 10543 10542 10539 10537 10535 10535 10534 10532 10531 10529 10528 10527 10524 10521 10519 10517 10514 10511 10509 10507 10504 10502 10499 10496 10492 10489 10486 10483 10480 10477 10474 10471 10468 10466 10463 10461 10459 10456 10454 10452 10450 10448 10446 10444 10442 10441 10440 10439 10437 10436 10435 10434 10433 10432 10432 10431 10431 10430 10430 10429 10429 10429 10429 10429 10429 10429 10429 10429 10430 10430 10431 10431 10432 10433 10434 10434 10434 10435 10436 10436 10436 10436
10543 10542 10540 10537 10537 10536 10534 10532 10531 10529 10528 10527 10526 10524 10522 10520 10517 10514 10512 10510 10507 10505 10502 10500 10498 10496 10492 10489 10486 10482 10479 10476 10473 10471 10467 10464 10462 10459 10457 10454 10452 10450 10448 10446 10444 10442 10441 10439 10437 10436 10435 10434 10432 10431 10430 10429 10429 10428 10427 10427 10427 10426 10426 10426 10426 10426 10426 10426 10426 10426 10426 10426 10426 10427 10427 10428 10429 10430 10431 10431 10431 10432 10432 10433 10433 10434
10537 10536 10534 10532 10531 10530 10529 10527 10526 10524 10522 10521 10519 10517 10516 10513 10511 10507 10505 10503 10501 10498 10496 10493 10491 10488 10485 10482 10479 10476 10472 10469 10466 10464 10461 10458 10456 10453 10451 10449 10446 10444 10442 10441 10439 10437 10435 10434 10432 10431 10430 10429 10427 10426 10426 10425 10424 10424 10423 10422 10422 10422 10422 10422 10422 10422 10422 10422 10422 10422 10422 10423 10423 10424 10424 10425 10426 10427 10427 10428 10429 10429 10429 10430 10430 10431
10530 10530 10529 10527 10526 10524 10522 10521 10519 10517 10516 10514 10512 10511 10509 10507 10504 10502 10499 10496 10494 10492 10489 10487 10484 10482 10479 10475 10472 10469 10466 10463 10460 10457 10455 10452 10449 10447 10445 10442 10441 10439 10436 10435 10433 10431 10430 10428 10427 10426 10425 10424 10423 10422 10421 10420 10419 10419 10419 10419 10419 10418 10418 10418 10418 10418 10418 10419 10419 10419 10419 10420 10420 10421 10421 10422 10422 10424 10424 10425 10426 10426 10427 10427 10427 10427
10524 10523 10523 10522 10520 10518 10516 10514 10513 10511 10510 10509 10506 10504 10502 10501 10499 10497 10494 10491 10488 10486 10483 10481 10478 10476 10473 10469 10466 10462 10459 10456 10454 10451 10449 10446 10444 10441 10439 10437 10435 10433 10431 10429 10428 10426 10424 10423 10422 10421 10420 10419 10418 10417 10416 10416 10415 10415 10415 10414 10414 10414 10414 10414 10414 10414 10415 10415 10416 10416 10416 10417 10417 10417 10418 10419 10419 10421 10421 10422 10422 10423 10424 10424 10424 10425
10518 10517 10516 10515 10514 10512 10510 10508 10506 10505 10504 10503 10501 10498 10496 10494 10492 10491 10488 10486 10483 10480 10477 10474 10471 10468 10466 10463 10459 10456 10453 10451 10448 10446 10443 10441 10438 10436 10434 10431 10429 10427 10426 10424 10422 10421 10419 10418 10417 10416 10415 10414 10414 10412 10412 10411 10411 10411 10411 10411 10411 10411 10411 10411 10411 10411 10411 10412 10412 10412 10413 10414 10414 10414 10415 10416 10416 10417 10418 10419 10419 10420 10421 10421 10421 10422
10512 10511 10509 10507 10507 10506 10504 10501 10499 10499 10498 10497 10496 10492 10489 10487 10485 10482 10481 10479 10477 10474 10471 10467 10464 10461 10458 10456 10453 10450 10447 10444 10442 10439 10437 10434 10432 10430 10428 10426 10424 10422 10421 10419 10418 10416 10415 10414 10412 10411 10411 10409 10409 10408 10407 10407 10407 10407 10407 10407 10407 10407 10407 10407 10407 10407 10407 10408 10409 10409 10410 10411 10411 10411 10412 10412 10413 10414 10415 10416 10417 10417 10418 10418 10419 10419
10506 10504 10503 10501 10500 10499 10497 10496 10494 10492 10491 10491 10489 10486 10484 10481 10479 10476 10473 10471 10469 10467 10464 10461 10457 10454 10451 10449 10446 10444 10441 10438 10436 10434 10431 10429 10427 10424 10422 10421 10419 10417 10416 10414 10413 10412 10410 10409 10407 10407 10406 10405 10404 10404 10403 10402 10402 10402 10402 10402 10403 10403 10403 10403 10404 10404 10404 10405 10406 10406 10406 10407 10407 10408 10409 10409 10411 10411 10412 10412 10414 10414 10415 10415 10416 10416
10499 10497 10496 10495 10493 10492 10491 10490 10488 10486 10485 10484 10482 10480 10477 10476 10473 10471 10467 10464 10461 10459 10457 10454 10451 10448 10445 10442 10439 10437 10435 10432 10429 10427 10426 10423 10421 10419 10417 10415 10413 10412 10410 10409 10407 10407 10406 10404 10403 10402 10401 10401 10400 10399 10399 10399 10399 10399 10399 10399 10399 10399 10399 10400 10400 10401 10401 10401 10402 10402 10403 10404 10404 10406 10406 10407 10407 10408 10409 10409 10411 10411 10412 10412 10412 10413
10492 10491 10489 10488 10487 10485 10484 10482 10481 10480 10479 10477 10476 10473 10470 10468 10466 10465 10462 10457 10454 10451 10449 10447 10444 10442 10439 10436 10433 10431 10429 10426 10424 10421 10419 10417 10416 10414 10412 10410 10408 10406 10405 10404 10402 10402 10401 10399 10399 10398 10397 10396 10396 10395 10395 10395 10395 10395 10395 10395 10396 10396 10396 10396 10397 10397 10397 10398 10399 10399 10400 10401 10402 10402 10403 10404 10404 10405 10406 10407 10407 10408 10409 10409 10409 10410
10486 10484 10483 10482 10480 10479 10477 10476 10474 10473 10471 10470 10468 10466 10463 10461 10459 10457 10456 10452 10448 10445 10442 10439 10437 10434 10432 10430 10427 10425 10423 10421 10418 10416 10414 10411 10410 10408 10406 10404 10402 10401 10400 10399 10398 10397 10396 10395 10394 10394 10392 10392 10392 10391 10391 10391 10391 10391 10391 10391 10392 10392 10392 10393 10394 10394 10394 10395 10396 10396 10397 10397 10399 10399 10400 10401 10401 10402 10402 10403 10404 10405 10405 10406 10406 10407
10479 10478 10477 10476 10474 10472 10471 10469 10468 10466 10464 10462 10461 10459 10457 10454 10452 10451 10448 10445 10441 10438 10436 10433 10430 10427 10426 10424 10422 10419 10417 10414 10412 10410 10408 10406 10404 10403 10401 10399 10397 10396 10395 10394 10393 10392 10391 10391 10390 10389 10389 10388 10387 10387 10387 10387 10387 10387 10387 10388 10388 10389 10389 10389 10390 10391 10391 10392 10392 10393 10394 10394 10396 10396 10397 10397 10398 10399 10399 10400 10401 10401 10402 10402 10403 10404
10473 10472 10471 10469 10467 10466 10464 10463 10462 10460 10458 10456 10454 10452 10451 10448 10446 10444 10441 10438 10434 10432 10429 10427 10424 10421 10419 10417 10416 10414 10411 10409 10406 10404 10402 10401 10399 10397 10396 10394 10392 10391 10391 10389 10388 10387 10387 10386 10386 10385 10385 10384 10384 10384 10384 10384 10384 10384 10384 10384 10385 10385 10386 10386 10387 10387 10388 10389 10389 10390 10391 10392 10392 10393 10394 10394 10395 10396 10396 10397 10397 10398 10399 10399 10400 10401
10466 10465 10464 10463 10461 10459 10457 10456 10456 10454 10451 10449 10447 10446 10444 10441 10439 10436 10434 10431 10427 10425 10423 10421 10417 10415 10413 10411 10409 10407 10405 10402 10401 10399 10397 10395 10394 10392 10391 10389 10388 10387 10386 10385 10384 10383 10382 10382 10382 10381 10381 10381 10381 10380 10380 10380 10381 10381 10381 10381 10381 10382 10382 10383 10384 10384 10385 10386 10386 10387 10387 10389 10389 10390 10391 10391 10392 10392 10393 10394 10394 10395 10396 10396 10397 10397
10460 10459 10458 10457 10455 10453 10451 10450 10449 10447 10445 10443 10441 10439 10437 10434 10432 10429 10427 10424 10421 10419 10416 10414 10411 10409 10406 10405 10404 10402 10399 10397 10395 10393 10391 10389 10388 10387 10386 10385 10383 10382 10381 10381 10379 10379 10378 10378 10377 10377 10377 10377 10377 10377 10377 10377 10377 10377 10377 10377 10378 10379 10379 10380 10381 10381 10382 10382 10383 10384 10385 10386 10386 10387 10387 10388 10389 10389 10390 10391 10391 10392 10392 10393 10393 10394
10453 10452 10451 10451 10449 10447 10445 10444 10442 10441 10439 10436 10434 10432 10430 10428 10426 10422 10420 10417 10415 10412 10410 10408 10406 10403 10401 10398 10397 10396 10394 10392 10389 10387 10386 10384 10383 10382 10382 10381 10379 10377 10377 10376 10376 10375 10374 10374 10374 10373 10373 10373 10373 10373 10374 10374 10374 10374 10374 10374 10375 10376 10376 10377 10377 10378 10379 10379 10380 10381 10382 10382 10383 10384 10384 10385 10386 10386 10387 10387 10388 10389 10389 10389 10390 10391
10447 10446 10445 10444 10442 10441 10439 10437 10436 10434 10432 10430 10427 10426 10423 10421 10418 10416 10414 10411 10409 10406 10404 10402 10399 10397 10396 10393 10391 10389 10389 10387 10384 10382 10381 10379 10378 10377 10377 10376 10374 10373 10372 10372 10371 10371 10371 10370 10370 10369 10369 10369 10370 10370 10370 10370 10371 10371 10371 10371 10372 10372 10373 10374 10374 10375 10376 10376 10377 10378 10379 10379 10380 10381 10381 10382 10382 10383 10384 10384 10385 10386 10386 10386 10387 10387
10440 10439 10438 10437 10436 10434 10432 10430 10429 10427 10426 10423 10421 10419 10416 10413 10411 10409 10407 10404 10402 10401 10398 10396 10394 10391 10390 10387 10385 10384 10383 10381 10379 10377 10376 10375 10374 10372 10372 10371 10370 10369 10368 10367 10367 10367 10367 10366 10366 10366 10366 10366 10366 10366 10367 10367 10367 10367 10367 10368 10369 10369 10370 10371 10371 10372 10372 10373 10374 10375 10376 10376 10377 10377 10378 10379 10380 10381 10381 10381 10382 10382 10382 10383 10383 10384
10433 10432 10431 10431 10429 10428 10426 10423 10422 10421 10419 10417 10414 10411 10409 10406 10404 10402 10400 10398 10396 10394 10392 10391 10388 10386 10384 10382 10380 10378 10377 10376 10374 10373 10371 10370 10369 10368 10367 10367 10366 10365 10364 10364 10364 10363 10363 10362 10362 10362 10362 10362 10363 10363 10364 10364 10364 10364 10364 10365 10366 10366 10367 10367 10368 10369 10370 10371 10371 10372 10372 10373 10374 10374 10375 10376 10377 10377 10377 10378 10378 10379 10379 10379 10380 10381
10427 10425 10424 10423 10423 10422 10419 10417 10415 10414 10412 10410 10407 10404 10402 10400 10397 10396 10394 10392 10391 10389 10387 10385 10382 10380 10378 10376 10374 10373 10372 10371 10370 10368 10367 10366 10364 10364 10363 10362 10362 10361 10361 10360 10360 10359 10359 10359 10359 10359 10359 10359 10359 10360 10360 10361 10361 10361 10361 10362 10362 10363 10364 10364 10365 10366 10367 10367 10368 10369 10369 10370 10371 10372 10372 10373 10373 10374 10374 10374 10375 10375 10376 10376 10377 10377
10420 10419 10417 10416 10416 10414 10413 10411 10409 10407 10405 10403 10401 10398 10396 10394 10391 10389 10387 10386 10384 10383 10381 10379 10377 10375 10373 10371 10369 10368 10367 10367 10366 10364 10362 10362 10361 10359 10359 10359 10358 10357 10357 10356 10356 10356 10356 10356 10356 10356 10356 10356 10356 10357 10357 10357 10357 10358 10358 10359 10359 10360 10361 10361 10362 10363 10364 10364 10365 10366 10366 10367 10368 10369 10369 10369 10370 10371 10371 10371 10371 10372 10372 10373 10374 10374
10413 10412 10411 10409 10409 10407 10406 10404 10402 10400 10398 10396 10394 10392 10389 10387 10385 10383 10381 10380 10379 10377 10376 10374 10372 10369 10367 10366 10364 10363 10362 10362 10361 10360 10359 10357 10356 10356 10355 10355 10354 10354 10353 10353 10353 10353 10353 10352 10352 10352 10353 10353 10353 10354 10354 10354 10354 10355 10356 10356 10356 10357 10357 10359 10359 10360 10361 10361 10362 10362 10363 10364 10364 10365 10366 10366 10366 10367 10367 10367 10368 10369 10369 10370 10371 10372
10406 10405 10404 10403 10402 10401 10399 10397 10395 10393 10391 10389 10387 10386 10383 10381 10379 10377 10376 10375 10374 10372 10370 10368 10366 10364 10362 10361 10360 10359 10357 10357 10356 10356 10354 10353 10352 10352 10351 10351 10351 10350 10350 10350 10350 10350 10349 10349 10349 10350 10350 10350 10350 10351 10351 10351 10352 10352 10352 10353 10354 10354 10355 10356 10356 10357 10357 10358 10359 10359 10360 10361 10361 10362 10362 10362 10363 10364 10364 10365 10366 10366 10367 10367 10368 10369
10399 10398 10397 10396 10395 10393 10392 10390 10388 10386 10384 10383 10381 10379 10377 10376 10374 10372 10371 10369 10368 10366 10364 10362 10361 10359 10357 10356 10355 10354 10353 10353 10352 10351 10350 10349 10349 10348 10347 10347 10347 10347 10346 10346 10346 10347 10347 10346 10346 10347 10347 10347 10347 10347 10348 10348 10349 10349 10350 10351 10351 10351 10352 10352 10354 10354 10354 10355 10356 10356 10357 10357 10358 10358 10359 10359 10360 10361 10361 10362 10362 10363 10364 10364 10365 10366
10392 10391 10391 10389 10388 10386 10384 10382 10381 10379 10378 10376 10375 10373 10371 10369 10368 10367 10366 10364 10363 10361 10359 10357 10355 10354 10352 10351 10351 10349 10349 10349 10347 10347 10346 10346 10345 10344 10344 10344 10344 10344 10343 10343 10343 10344 10344 10344 10344 10344 10344 10344 10344 10345 10346 10346 10346 10347 10347 10347 10348 10349 10349 10350 10351 10351 10352 10352 10352 10353 10354 10354 10355 10356 10356 10357 10357 10358 10359 10359 10360 10361 10361 10361 10362 10362
10386 10385 10384 10382 10381 10379 10377 10376 10374 10373 10372 10370 10369 10367 10366 10364 10362 10361 10360 10359 10357 10356 10354 10352 10350 10349 10347 10347 10346 10345 10345 10344 10344 10342 10342 10342 10341 10341 10340 10340 10341 10341 10340 10340 10340 10341 10341 10341 10341 10341 10341 10342 10342 10342 10342 10343 10344 10344 10344 10345 10346 10346 10346 10347 10347 10348 10349 10349 10350 10351 10351 10352 10352 10353 10354 10354 10354 10355 10356 10356 10357 10357 10357 10358 10358 10358
10379 10378 10377 10375 10374 10372 10371 10369 10368 10367 10366 10364 10362 10361 10360 10359 10357 10356 10354 10353 10352 10350 10348 10347 10346 10344 10343 10342 10342 10341 10341 10340 10339 10339 10339 10338 10337 10337 10336 10337 10337 10337 10337 10337 10337 10337 10337 10338 10338 10338 10339 10339 10339 10340 10340 10341 10341 10341 10342 10342 10342 10343 10344 10344 10345 10346 10346 10347 10347 10348 10349 10349 10349 10350 10351 10351 10351 10352 10352 10352 10353 10354 10354 10354 10354 10354
10372 10371 10369 10368 10366 10366 10364 10363 10362 10361 10359 10358 10357 10356 10354 10353 10352 10351 10349 10348 10347 10345 10343 10342 10341 10340 10339 10338 10337 10337 10336 10336 10336 10335 10335 10334 10334 10333 10333 10334 10334 10334 10334 10334 10334 10334 10334 10335 10335 10336 10336 10336 10337 10337 10337 10338 10338 10339 10339 10339 10340 10341 10341 10342 10342 10343 10343 10344 10344 10345 10346 10346 10346 10347 10347 10347 10347 10348 10349 10349 10349 10350 10350 10351 10351 10351
10366 10364 10362 10361 10360 10359 10358 10357 10356 10355 10354 10352 10351 10350 10349 10348 10347 10346 10344 10343 10341 10340 10339 10337 10336 10336 10335 10334 10334 10332 10332 10332 10332 10332 10332 10331 10330 10330 10330 10331 10331 10331 10331 10331 10331 10331 10331 10332 10332 10333 10333 10334 10334 10334 10335 10335 10336 10336 10337 10337 10337 10338 10339 10339 10339 10340 10341 10341 10341 10342 10342 10342 10342 10343 10343 10344 10344 10344 10345 10345 10346 10346 10346 10346 10346 10346
10358 10357 10355 10354 10354 10353 10352 10351 10351 10349 10348 10347 10346 10345 10344 10342 10342 10341 10339 10338 10337 10336 10334 10333 10332 10331 10331 10330 10329 10329 10328 10328 10328 10329 10329 10328 10327 10327 10327 10327 10327 10327 10327 10328 10328 10328 10328 10329 10329 10330 10331 10331 10331 10332 10332 10332 10333 10334 10334 10334 10335 10335 10336 10336 10336 10337 10337 10337 10337 10338 10339 10339 10339 10339 10339 10340 10340 10341 10341 10341 10341 10341 10342 10342 10342 10342
10351 10349 10349 10347 10347 10347 10346 10346 10345 10344 10342 10341 10341 10339 10338 10337 10336 10336 10334 10333 10332 10331 10330 10329 10328 10327 10327 10326 10326 10325 10325 10324 10325 10325 10325 10324 10324 10324 10324 10324 10324 10324 10324 10325 10325 10326 10326 10326 10327 10327 10328 10328 10328 10329 10329 10330 10330 10331 10331 10331 10331 10332 10332 10332 10332 10333 10333 10334 10334 10334 10335 10335 10335 10336 10336 10336 10336 10336 10336 10337 10337 10337 10337 10337 10337 10337
10344 10342 10342 10342 10342 10341 10341 10340 10339 10338 10337 10336 10335 10334 10333 10332 10331 10331 10329 10329 10327 10327 10326 10325 10324 10324 10323 10322 10322 10322 10321 10321 10321 10321 10321 10321 10321 10321 10321 10321 10321 10321 10321 10322 10322 10322 10323 10323 10324 10324 10325 10325 10326 10326 10326 10326 10327 10327 10327 10328 10328 10328 10329 10329 10329 10329 10330 10330 10331 10331 10331 10331 10331 10331 10331 10332 10332 10332 10332 10332 10332 10333 10333 10334 10334 10334
10337 10336 10336 10336 10336 10336 10335 10334 10334 10332 10332 10331 10329 10329 10328 10327 10326 10326 10325 10324 10324 10322 10322 10321 10321 10320 10319 10319 10319 10318 10318 10318 10318 10318 10318 10318 10317 10317 10317 10317 10318 10318 10319 10319 10319 10320 10320 10321 10321 10321 10321 10322 10322 10322 10323 10323 10324 10324 10324 10324 10325 10325 10325 10326 10326 10326 10326 10326 10327 10327 10327 10327 10327 10327 10327 10328 10328 10328 10328 10329 10329 10329 10329 10329 10329 10329
10331 10331 10331 10331 10331 10330 10330 10329 10328 10327 10326 10326 10324 10324 10323 10322 10322 10321 10321 10320 10319 10319 10318 10317 10317 10316 10316 10316 10316 10315 10315 10315 10315 10315 10315 10315 10314 10314 10315 10315 10315 10316 10316 10316 10317 10317 10317 10317 10318 10318 10319 10319 10319 10319 10320 10320 10321 10321 10321 10321 10321 10321 10322 10322 10322 10322 10323 10323 10323 10324 10324 10324 10324 10324 10324 10324 10324 10325 10325 10325 10325 10325 10325 10325 10325 10325
10325 10325 10326 10326 10326 10325 10324 10324 10323 10322 10321 10321 10319 10319 10318 10317 10317 10317 10316 10316 10315 10315 10314 10314 10313 10313 10312 10312 10312 10312 10312 10312 10312 10312 10312 10312 10312 10312 10312 10312 10312 10313 10313 10314 10314 10314 10314 10315 10315 10315 10316 10316 10316 10316 10317 10317 10317 10318 10318 10318 10318 10318 10318 10319 10319 10319 10319 10320 10320 10321 10321 10321 10321 10321 10321 10321 10321 10321 10321 10321 10321 10321 10321 10321 10321 10321
10320 10320 10321 10321 10320 10319 10319 10318 10317 10317 10316 10316 10315 10314 10314 10313 10313 10312 10312 10312 10311 10311 10311 10310 10310 10309 10309 10309 10309 10309 10309 10309 10309 10309 10309 10309 10309 10309 10309 10309 10310 10311 10311 10311 10311 10311 10312 10312 10312 10312 10312 10313 10313 10313 10314 10314 10314 10315 10314 10315 10315 10315 10315 10316 10316 10316 10316 10316 10317 10317 10317 10317 10317 10317 10317 10317 10317 10317 10316 10316 10316 10316 10316 10316 10316 10315
10315 10315 10315 10315 10315 10314 10314 10313 10312 10312 10311 10311 10310 10310 10309 10309 10309 10308 10308 10307 10307 10307 10307 10306 10306 10306 10306 10306 10306 10306 10306 10306 10306 10306 10306 10306 10306 10306 10306 10307 10307 10307 10308 10308 10308 10309 10309 10309 10309 10309 10310 10310 10311 10311 10311 10311 10311 10311 10311 10312 10312 10312 10312 10312 10312 10312 10312 10312 10312 10312 10313 10313 10313 10313 10312 10312 10312 10312 10312 10312 10311 10311 10311 10311 10310 10310
10310 10311 10310 10310 10309 10309 10309 10308 10307 10307 10307 10306 10306 10306 10305 10305 10304 10304 10304 10304 10304 10303 10303 10303 10302 10302 10302 10302 10302 10302 10303 10303 10303 10303 10303 10304 10304 10304 10304 10304 10304 10304 10305 10306 10306 10306 10306 10306 10306 10307 10307 10307 10307 10307 10308 10308 10308 10308 10308 10308 10308 10308 10308 10308 10309 10309 10309 10309 10309 10309 10309 10309 10309 10309 10308 10308 10308 10307 10307 10307 10306 10306 10306 10305 10305 10304
10306 10306 10305 10305 10304 10304 10304 10304 10303 10302 10302 10302 10302 10301 10301 10301 10301 10301 10300 10300 10300 10299 10299 10299 10299 10299 10299 10299 10299 10300 10300 10300 10300 10300 10301 10301 10301 10301 10301 10301 10301 10302 10302 10302 10302 10302 10303 10303 10303 10304 10304 10304 10304 10304 10304 10304 10304 10304 10304 10304 10304 10304 10304 10304 10304 10304 10304 10304 10304 10304 10304 10304 10304 10304 10304 10303 10303 10302 10302 10301 10301 10301 10300 10300 10299 10299
10301 10301 10300 10300 10300 10299 10299 10299 10299 10299 10298 10298 10298 10297 10297 10297 10297 10297 10296 10296 10296 10296 10296 10296 10296 10296 10296 10296 10296 10297 10297 10297 10297 10297 10297 10297 10297 10298 10298 10298 10299 10299 10299 10299 10299 10299 10300 10300 10300 10300 10301 10301 10301 10301 10301 10301 10301 10301 10301 10300 10300 10300 10300 10301 10301 10301 10300 10300 10300 10299 10299 10299 10299 10299 10299 10298 10298 10297 10297 10296 10296 10295 10294 10294 10294 10293
10296 10296 10296 10296 10295 10295 10295 10295 10295 10294 10294 10294 10294 10294 10293 10293 10293 10293 10293 10292 10292 10292 10292 10293 10293 10293 10293 10293 10293 10294 10294 10294 10294 10294 10294 10294 10295 10295 10295 10296 10296 10296 10296 10296 10296 10296 10297 10297 10297 10297 10297 10297 10297 10297 10297 10297 10297 10297 10297 10296 10296 10296 10296 10296 10296 10296 10296 10295 10295 10295 10295 10294 10294 10294 10294 10293 10292 10292 10292 10291 10291 10289 10289 10288 10288 10287
10291 10291 10291 10291 10291 10291 10291 10291 10291 10291 10291 10291 10290 10290 10290 10289 10289 10289 10289 10289 10289 10289 10289 10289 10290 10290 10290 10290 10290 10291 10291 10291 10291 10291 10291 10291 10292 10292 10292 10292 10292 10292 10293 10293 10293 10293 10293 10294 10294 10294 10294 10294 10294 10294 10294 10293 10293 10292 10292 10292 10292 10292 10291 10291 10291 10291 10291 10291 10291 10291 10290 10290 10289 10289 10289 10288 10287 10287 10286 10286 10285 10284 10283 10282 10282 10281
10286 10287 10287 10287 10287 10287 10287 10287 10287 10287 10287 10287 10286 10286 10286 10286 10286 10286 10286 10286 10286 10286 10287 10287 10287 10287 10287 10287 10287 10287 10287 10288 10288 10289 10289 10289 10289 10289 10289 10289 10289 10290 10290 10290 10290 10290 10290 10291 10291 10291 10291 10291 10291 10291 10290 10289 10289 10289 10289 10289 10289 10288 10287 10286 10286 10286 10286 10286 10286 10286 10286 10285 10284 10284 10284 10283 10282 10282 10281 10281 10279 10278 10277 10277 10276 10275
10282 10282 10282 10282 10283 10283 10283 10283 10283 10283 10283 10283 10283 10283 10283 10283 10283 10283 10283 10283 10283 10283 10284 10284 10284 10284 10284 10284 10284 10284 10285 10285 10286 10286 10286 10286 10286 10286 10286 10287 10287 10287 10287 10287 10287 10287 10287 10287 10287 10287 10287 10287 10287 10287 10286 10286 10286 10285 10285 10285 10284 10284 10283 10282 10282 10282 10281 10281 10281 10280 10280 10280 10279 10279 10277 10277 10277 10276 10276 10275 10274 10272 10272 10271 10270 10269
10278 10278 10279 10279 10279 10279 10279 10279 10279 10279 10279 10279 10279 10279 10279 10280 10280 10280 10280 10280 10281 10281 10281 10281 10281 10281 10281 10281 10281 10282 10282 10282 10282 10282 10283 10283 10283 10283 10284 10284 10284 10284 10284 10284 10284 10284 10284 10284 10284 10284 10284 10284 10284 10283 10283 10282 10282 10282 10281 10281 10281 10280 10279 10278 10278 10277 10277 10276 10276 10275 10274 10274 10274 10272 10272 10271 10271 10270 10269 10269 10268 10267 10266 10265 10264 10263
10274 10274 10274 10275 10276 10276 10276 10276 10276 10276 10276 10276 10276 10276 10276 10277 10277 10277 10277 10277 10277 10277 10277 10277 10277 10277 10277 10278 10278 10279 10279 10279 10279 10279 10280 10280 10280 10281 10281 10281 10281 10281 10281 10281 10281 10281 10281 10281 10281 10281 10281 10280 10280 10279 10279 10279 10279 10278 10277 10277 10276 10276 10275 10274 10273 10273 10272 10272 10271 10270 10269 10269 10268 10267 10266 10266 10264 10264 10263 10262 10262 10261 10260 10259 10258 10257
10270 10271 10271 10271 10272 10272 10272 10272 10272 10272 10272 10272 10273 10273 10273 10274 10274 10274 10274 10274 10274 10274 10274 10274 10274 10274 10274 10275 10275 10276 10276 10276 10276 10276 10276 10277 10277 10277 10277 10277 10277 10277 10277 10277 10277 10277 10277 10277 10277 10277 10277 10276 10276 10276 10275 10276 10275 10274 10274 10273 10272 10271 10271 10269 10269 10268 10267 10267 10266 10265 10264 10263 10262 10261 10260 10259 10259 10258 10257 10257 10256 10255 10254 10253 10252 10251
10266 10267 10267 10267 10268 10268 10268 10269 10269 10269 10269 10269 10269 10270 10270 10270 10271 10271 10271 10271 10271 10271 10271 10271 10271 10271 10271 10272 10272 10272 10272 10272 10272 10272 10273 10273 10273 10274 10274 10274 10274 10274 10274 10274 10274 10274 10274 10274 10274 10274 10273 10273 10272 10272 10271 10271 10271 10271 10270 10269 10268 10267 10266 10265 10264 10264 10263 10262 10261 10260 10259 10258 10257 10256 10255 10254 10252 10252 10251 10251 10249 10249 10248 10247 10246 10245
10262 10263 10264 10264 10264 10264 10265 10265 10266 10266 10266 10266 10266 10266 10266 10267 10267 10267 10267 10267 10267 10267 10267 10267 10267 10268 10268 10268 10268 10269 10269 10269 10269 10269 10269 10269 10270 10270 10270 10270 10270 10270 10270 10270 10270 10270 10270 10270 10270 10269 10269 10269 10269 10268 10267 10267 10266 10266 10265 10264 10263 10262 10261 10261 10259 10259 10258 10257 10256 10254 10254 10252 10251 10250 10249 10248 10247 10246 10245 10244 10244 10242 10242 10241 10240 10239
10259 10259 10260 10261 10261 10261 10261 10262 10262 10262 10262 10262 10262 10263 10263 10263 10264 10264 10264 10264 10264 10264 10264 10264 10264 10264 10264 10265 10265 10265 10266 10266 10266 10266 10266 10266 10266 10266 10266 10266 10266 10266 10266 10266 10266 10266 10266 10266 10266 10266 10265 10266 10266 10265 10264 10262 10262 10261 10260 10259 10259 10258 10257 10256 10255 10254 10253 10252 10251 10249 10248 10247 10245 10244 10243 10242 10241 10239 10239 10238 10237 10237 10236 10235 10234 10233